Powrót do katalogu

STARLINK-6376

AktywnyŁącznośćVLEO
NORAD 57349·PAYLOAD·🇺🇸 United States

Wystrzelony Jul 16, 2023 z Cape Canaveral Space Force Station

Loading…

Następne Przeloty (najbliższe 24 godziny)

TLE

ŚwieżeSource: CelesTrak SupGP

Epoka: Sep 15, 2026, 02:40 UTC

1 57349C 23099X   26258.11159722 -.00020794  00000+0 -75326-3 0  2589
2 57349  42.9994 259.1134 0001309 263.5111 235.2015 15.27583871    10

Śledź STARLINK-6376 w czasie rzeczywistym z AllMySat

Download on the App Store